Location: Archemont
(49.1579°N, 1.7598°E)
Time: 10:21:47
(UTC+00:00)

IRIDIUM 103 - Visible Passes

Search period start: 28 September 2023 00:00
Search period end: 08 October 2023 00:00
Orbit: 776 x 779 km, 86.4° (Epoch: 27 September)

Date Brightness Start Highest point End Pass type
(mag) Time Alt. Az. Time Alt. Az. Time Alt. Az.
28 Sep 6.0 18:54:27 10° NE 18:57:13 14° ENE 18:57:24 14° ENE visible
28 Sep 4.6 20:33:30 10° N 20:37:52 63° N 20:37:52 63° N visible
28 Sep 6.9 22:16:03 10° NW 22:18:21 14° WNW 22:18:21 14° WNW visible
29 Sep 4.6 20:00:02 10° N 20:04:33 50° ENE 20:04:33 50° ENE visible
29 Sep 6.3 21:41:27 10° NNW 21:45:01 23° WNW 21:45:01 23° WNW visible
30 Sep 5.1 19:26:47 10° NNE 19:31:14 31° ENE 19:31:14 31° ENE visible
30 Sep 5.6 21:07:24 10° NNW 21:11:43 38° WNW 21:11:43 38° WNW visible
01 Oct 5.7 18:53:51 10° NNE 18:57:34 19° ENE 18:57:56 19° ENE visible
01 Oct 4.6 20:33:38 10° N 20:38:24 64° WNW 20:38:24 64° WNW visible
02 Oct 6.2 18:21:51 10° NE 18:23:34 11° ENE 18:24:40 11° ENE visible
02 Oct 4.2 20:00:04 10° N 20:05:08 72° ENE 20:05:08 72° ENE visible
02 Oct 6.7 21:42:04 10° NW 21:45:24 17° WNW 21:45:37 17° W visible
03 Oct 4.6 19:26:40 10° N 19:31:39 42° E 19:31:53 42° E visible
03 Oct 6.0 21:07:45 10° NNW 21:12:11 29° W 21:12:22 29° W visible
04 Oct 5.3 18:53:31 10° NNE 18:57:52 26° ENE 18:58:39 25° E visible
04 Oct 5.1 20:33:50 10° NNW 20:38:51 48° W 20:39:08 48° W visible
05 Oct 5.9 18:20:49 10° NNE 18:23:56 16° ENE 18:25:27 14° E visible
05 Oct 4.3 20:00:08 10° N 20:05:24 83° W 20:05:57 71° SSW visible
05 Oct 7.0 21:43:05 10° NW 21:45:14 13° WNW 21:46:26 12° W visible
06 Oct 4.3 19:26:38 10° N 19:31:49 59° E 19:32:47 50° SE visible
06 Oct 6.5 21:08:14 10° NNW 21:12:05 21° WNW 21:13:16 20° W visible
07 Oct 4.9 18:53:20 10° NNE 18:58:07 35° ENE 18:59:40 29° ESE visible
07 Oct 5.7 20:34:07 10° NNW 20:38:49 35° W 20:40:10 30° WSW visible
